{"data":{"norad_id":63924,"intl_designator":"2025-097A","name":"TJS-19","alt_names":[],"object_type":"PAYLOAD","status":"ACTIVE","operator":null,"country":"PRC","launch_date":"2025-05-12","launch_site_code":"XICLF","launch_vehicle":null,"mission":null,"orbit_class":"UNKNOWN","rcs_meters":null,"size_class":null,"mass_kg":null,"dimensions":null,"purposes":["comms"],"wikipedia_slug":null,"has_3d_model":false,"image_url":null,"decayed_at":null,"tle_current":{"epoch":"2026-09-19T18:22:26.530176Z","epoch_age_seconds":81832,"freshness":"FRESH","line1":"1 63924U 25097A   26262.76558484 -.00000281  00000+0  00000+0 0  9992","line2":"2 63924   3.1377 319.1069 0006231 262.9703 193.3536  1.00269664  5095","mean_motion":1.00269664,"eccentricity":0.0006231,"inclination_deg":3.1377,"raan_deg":319.1069,"arg_perigee_deg":262.9703,"mean_anomaly_deg":193.3536,"bstar":0,"rev_number":509,"period_min":1436.127281727,"perigee_km":35760.916349984,"apogee_km":35813.462779949,"semimajor_km":42165.326564966,"source":"CELESTRAK","updated_at":"2026-09-20T09:00:35.344176Z"}}}